Regional Weather Roundup
Issued by NWS

Home | Current Version | Previous Version | Text Only | Print | Product List | Glossary Off
Versions: 1 2 3 4 5 6 7 8 9 10 11 12 13 14 15 16 17 18 19 20 21 22 23 24 25 26 27 28 29 30 31 32 33 34 35 36 37 38 39 40 41 42 43 44 45 46 47 48 49 50

000
ASUS43 KOAX 250602
RWRNE

WEATHER ROUNDUP FOR NEBRASKA
NATIONAL WEATHER SERVICE OMAHA NE
100 AM CDT TUE JUL 25 2017

NOTES: SATELLITE DATA IS BEING USED TO AUGMENT CLOUD COVER ABOVE
       12000 FEET.
       "FAIR" INDICATES FEW OR NO CLOUDS BELOW 12,000 FEET WITH NO
       SIGNIFICANT WEATHER AND/OR OBSTRUCTIONS TO VISIBILITY.


NEZ001>004-019>022-054>056-250700-
NEBRASKA PANHANDLE

CITY           SKY/WX    TMP DP  RH WIND       PRES   REMARKS
SCOTTSBLUFF    CLOUDY    81  52  36 SE10      29.95S
6HR MIN TEMP:  75; 6HR MAX TEMP: 100;

ALLIANCE       CLOUDY    76  53  44 S12       29.95R
6HR MIN TEMP:  76; 6HR MAX TEMP: 100;

CHADRON        CLEAR     80  51  36 VRB3      29.88R
6HR MIN TEMP:  77; 6HR MAX TEMP: 104;

GORDON         FAIR      65  58  77 CALM      29.93S
6HR MIN TEMP:  65; 6HR MAX TEMP:  98;

KIMBALL        CLOUDY    77  55  46 S20G26    30.04S
SIDNEY         CLOUDY    78  59  51 S22G30    30.02S
6HR MIN TEMP:  76; 6HR MAX TEMP:  86;

$$

NEZ057>060-069>072-079>082-250700-
SOUTHWEST NEBRASKA

CITY           SKY/WX    TMP DP  RH WIND       PRES   REMARKS
IMPERIAL       CLOUDY    81  56  42 S14       29.98S
6HR MIN TEMP:  81; 6HR MAX TEMP:  95;

LEXINGTON      CLEAR     80  55  42 S15G21    29.97S
MCCOOK         CLOUDY    84  54  35 S20G28    29.96R
6HR MIN TEMP:  83; 6HR MAX TEMP:  97;

OGALLALA       CLEAR     82  60  46 S18G28    29.95R
$$

NEZ005>010-023>029-035>040-094-250700-
NORTH CENTRAL NEBRASKA

CITY           SKY/WX    TMP DP  RH WIND       PRES   REMARKS
VALENTINE      CLEAR     81  62  52 S17       29.91S
6HR MIN TEMP:  79; 6HR MAX TEMP: 101;

AINSWORTH      CLEAR     77  70  77 SE15      29.94S
BROKEN BOW     CLEAR     77  64  64 S9        29.97R
6HR MIN TEMP:  77; 6HR MAX TEMP:  92;

O`NEILL        CLOUDY    78  71  79 S20       29.93F
ORD            CLEAR     77  68  73 SE12G18   29.94S
6HR MIN TEMP:  77; 6HR MAX TEMP:  90;

THEDFORD       CLEAR     80  55  41 S12       29.95S
$$

NEZ041-046>049-061>064-073>077-083>087-250700-
SOUTH CENTRAL NEBRASKA

CITY           SKY/WX    TMP DP  RH WIND       PRES   REMARKS
GRAND ISLAND   CLEAR     76  73  91 S14       29.98S
6HR MIN TEMP:  76; 6HR MAX TEMP:  88;

AURORA         CLEAR     74  72  94 S9        29.99S
HASTINGS       PTCLDY    78  68  71 S9        30.00R
6HR MIN TEMP:  78; 6HR MAX TEMP:  88;

HEBRON         CLEAR     78  73  85 S8        30.00S
HOLDREGE       PTCLDY    75  61  61 S10       29.99R
KEARNEY        MOCLDY    76  67  73 S14       29.98S
YORK           CLEAR     75  72  88 S8        29.99S
$$

NEZ011>018-030>034-042>045-250700-
NORTHEAST NEBRASKA

CITY           SKY/WX    TMP DP  RH WIND       PRES   REMARKS
NORFOLK        CLOUDY    75  65  70 S10       29.96S
6HR MIN TEMP:  74; 6HR MAX TEMP:  86;

ALBION         PTCLDY    75  70  84 SE7       29.96F
BLAIR          PTCLDY    76  66  71 SE10      30.00R
COLUMBUS       CLOUDY    76  68  76 S10       29.97F
FREMONT        CLOUDY    75  66  72 SE12      29.99S
TEKAMAH        MOCLDY    73  66  78 SE8       29.97F
6HR MIN TEMP:  73; 6HR MAX TEMP:  83;

WAYNE          CLOUDY    74  72  91 S14       29.94F
$$

NEZ050>053-065>068-078-088>093-250700-
SOUTHEAST NEBRASKA

CITY           SKY/WX    TMP DP  RH WIND       PRES   REMARKS
LINCOLN        PTCLDY    76  67  73 S10       29.99S
6HR MIN TEMP:  76; 6HR MAX TEMP:  87;

OMAHA EPPLEY   PTCLDY    76  65  68 SE13      29.99S
6HR MIN TEMP:  76; 6HR MAX TEMP:  85;

BEATRICE       PTCLDY    76  68  75 SE10      30.00S
FALLS CITY     CLEAR     70  67  90 SE6       30.01S
6HR MIN TEMP:  70; 6HR MAX TEMP:  83;

NEBRASKA CITY  CLEAR     72  70  92 SE6       30.01S
PLATTSMOUTH    PTCLDY    73  66  78 SE9       30.01S
$$

NEZ044-045-051>053-067-250700-
OMAHA AREA

CITY           SKY/WX    TMP DP  RH WIND       PRES   REMARKS
OMAHA EPPLEY   PTCLDY    76  65  68 SE13      29.99S
6HR MIN TEMP:  76; 6HR MAX TEMP:  85;

BLAIR          PTCLDY    76  66  71 SE10      30.00R
FREMONT        CLOUDY    75  66  72 SE12      29.99S
MILLARD        PTCLDY    76  69  77 SE9       29.99S
OFFUTT AFB     CLEAR     73  65  76 SE8       29.99S
PLATTSMOUTH    PTCLDY    73  66  78 SE9       30.01S
WAHOO          FAIR      72  66  82 SE8       29.99R
$$




USA.gov is the U.S. government's official web portal to all federal, state and local government web resources and services.